User: anonymous   Login
Location: Unspecified
(0.0000°N, 0.0000°E)
Time: 20:43:51
(UTC+00:00)
Language:

Optus B3 - Orbit

View from above orbital plane
View from above orbital plane
View from above satellite
View from above satellite

Ground track
Ground track

The orbit data is extracted from the following two-line orbital elements,

1 23227U 94055A   16146.51611422 -.00000080  00000-0  00000+0 0  9997
2 23227   6.7814  53.1140 0003393   0.7148 179.6848  1.00272142 79598
Epoch (UTC): 25 May 2016 12:23:12
Eccentricity: 0.0003393
inclination: 6.7814°
perigee height: 35772 km
apogee height: 35800 km
right ascension of ascending node: 53.1140°
argument of perigee: 0.7148°
revolutions per day: 1.00272142
mean anomaly at epoch: 179.6848°
orbit number at epoch: 7959

The dashed part of the orbit path shows where the satellite is in the earth's shadow,  

DLR